This demonstration page uses our WeatherBlox Daily Observations layout. Learn more.

Left ArrowRight Arrow

31.84235, -102.49876

Hourly Observations for August 17, 2015

Temp ( °F °C ) Dew Point ( °F °C ) Humidity (%) Winds ( mph kmh ) Pressure ( in mb ) Visibility ( mi km ) Precip ( " mm )
12:53 am 00:53 Clear 79 26.1 57 13.9 47 47 SSE 5 7 29.86 1011 10 16 0.00 0.00
1:53 am 01:53 Clear 79 26.1 58 14.4 49 49 Calm 29.86 1011 10 16 0.00 0.00
2:53 am 02:53 Clear 77 25 59 15 54 54 S 3 6 29.86 1011 10 16 0.00 0.00
3:53 am 03:53 Cloudy 76 24.4 60 15.6 58 58 S 6 9 29.86 1011 10 16 0.00 0.00
4:53 am 04:53 Partly Cloudy 78 25.6 58 14.4 50 50 S 10 17 29.87 1011 10 16 0.00 0.00
5:53 am 05:53 Clear 77 25 56 13.3 48 48 S 8 13 29.86 1011 10 16 0.00 0.00
6:53 am 06:53 Clear 75 23.9 57 13.9 54 54 S 10 17 29.87 1011 10 16 0.00 0.00
7:53 am 07:53 Sunny 75 23.9 59 15 58 58 S 7 11 29.88 1012 10 16 0.00 0.00
8:53 am 08:53 Sunny 77 25 61 16.1 58 58 S 13 20 29.90 1013 10 16 0.00 0.00
9:53 am 09:53 Sunny 81 27.2 60 15.6 49 49 S 15 24 29.91 1013 10 16 0.00 0.00
10:53 am 10:53 Sunny 85 29.4 58 14.4 40 40 S 17 28 29.91 1013 10 16 0.00 0.00
11:53 am 11:53 Sunny 89 31.7 55 12.8 31 31 SSW 14 22 29.89 1012 10 16 0.00 0.00
12:53 pm 12:53 Sunny 91 32.8 52 11.1 26 26 S 8 13 29.88 1012 10 16 0.00 0.00
1:53 pm 13:53 Sunny 93 33.9 52 11.1 25 25 S 9 15 29.86 1011 10 16 0.00 0.00
2:53 pm 14:53 Mostly Cloudy 93 33.9 51 10.6 24 24 S 8 13 29.84 1010 10 16 0.00 0.00
3:53 pm 15:53 Mostly Sunny 95 35 50 10 22 22 SSE 9 15 29.81 1009 10 16 0.00 0.00
4:53 pm 16:53 Mostly Cloudy 94 34.4 49 9.4 21 21 S 12 19 29.79 1009 10 16 0.00 0.00
5:53 pm 17:53 Mostly Sunny 93 33.9 49 9.4 22 22 SSE 9 15 29.76 1008 10 16 0.00 0.00
6:53 pm 18:53 Sunny 93 33.9 47 8.3 21 21 SE 14 22 29.76 1008 10 16 0.00 0.00
7:44 pm 19:44 Mostly Sunny 92 33.3 47 8.3 21 21 SE 12 19 29.65 1004 10 16 0.00 0.00
7:53 pm 19:53 Mostly Sunny 92 33.3 47 8.3 21 21 SE 9 15 29.76 1008 10 16 0.00 0.00
8:53 pm 20:53 Clear 89 31.7 48 8.9 24 24 SSE 8 13 29.76 1008 10 16 0.00 0.00
9:53 pm 21:53 Clear 87 30.6 50 10 28 28 S 9 15 29.78 1009 10 16 0.00 0.00
10:53 pm 22:53 Clear 86 30 51 10.6 30 30 S 10 17 29.80 1009 10 16 0.00 0.00
11:53 pm 23:53 Clear 85 29.4 51 10.6 31 31 S 13 20 29.79 1009 10 16 0.00 0.00

Powered by AerisWeather